| time (UTC) | temp C | wind direction | speed KPH | gust KPH | rain 1hr cm | rain 24hr cm | rain mn cm | humidity % | barometer mb |
| 20260503224502 | 13 | 170 | 3.2 | 14.5 | 0.00 | 0.00 | 0.00 | 49 | 1009.8 |
| 20260503223959 | 13 | 333 | 3.2 | 17.7 | 0.00 | 0.00 | 0.00 | 48 | 1010.3 |
| 20260503223457 | 13 | 232 | 11.3 | 22.5 | 0.00 | 0.00 | 0.00 | 48 | 1009.9 |
| 20260503222952 | 13 | 157 | 12.9 | 14.5 | 0.00 | 0.00 | 0.00 | 50 | 1010.3 |
| 20260503222451 | 13 | 165 | 8.0 | 14.5 | 0.00 | 0.00 | 0.00 | 49 | 1010.3 |
| 20260503221949 | 13 | 183 | 6.4 | 14.5 | 0.00 | 0.00 | 0.00 | 49 | 1010.2 |
| 20260503221447 | 13 | 215 | 9.7 | 24.1 | 0.00 | 0.00 | 0.00 | 47 | 1010.1 |
| 20260503220944 | 13 | 173 | 8.0 | 19.3 | 0.00 | 0.00 | 0.00 | 47 | 1010.1 |
| 20260503220440 | 13 | 148 | 6.4 | 20.9 | 0.00 | 0.00 | 0.00 | 48 | 1010.1 |
| 20260503215937 | 13 | 255 | 3.2 | 27.4 | 0.00 | 0.00 | 0.00 | 47 | 1009.9 |
| 20260503215433 | 13 | 171 | 6.4 | 20.9 | 0.00 | 0.00 | 0.00 | 47 | 1010.1 |
| 20260503214932 | 13 | 239 | 8.0 | 14.5 | 0.00 | 0.00 | 0.00 | 47 | 1010.1 |
| 20260503214429 | 13 | 258 | 3.2 | 8.0 | 0.00 | 0.00 | 0.00 | 49 | 1010.1 |
| 20260503213926 | 13 | 195 | 8.0 | 19.3 | 0.00 | 0.00 | 0.00 | 47 | 1010.0 |
| 20260503213424 | 13 | 256 | 16.1 | 33.8 | 0.00 | 0.00 | 0.00 | 46 | 1009.9 |
| 20260503212920 | 13 | 237 | 3.2 | 14.5 | 0.00 | 0.00 | 0.00 | 47 | 1010.0 |
| 20260503212418 | 13 | 218 | 4.8 | 16.1 | 0.00 | 0.00 | 0.00 | 45 | 1010.2 |
| 20260503211915 | 14 | 182 | 8.0 | 11.3 | 0.00 | 0.00 | 0.00 | 44 | 1009.9 |
| 20260503211412 | 14 | 194 | 4.8 | 27.4 | 0.00 | 0.00 | 0.00 | 41 | 1009.9 |
| 20260503210907 | 14 | 297 | 9.7 | 22.5 | 0.00 | 0.00 | 0.00 | 39 | 1010.0 |
| 20260503210405 | 14 | 267 | 6.4 | 24.1 | 0.00 | 0.00 | 0.00 | 37 | 1010.1 |
| 20260503205859 | 15 | 291 | 20.9 | 20.9 | 0.00 | 0.00 | 0.00 | 38 | 1010.1 |
| 20260503205356 | 14 | 203 | 6.4 | 38.6 | 0.00 | 0.00 | 0.00 | 37 | 1009.9 |
| 20260503204853 | 15 | 148 | 3.2 | 11.3 | 0.00 | 0.00 | 0.00 | 39 | 1009.9 |
| 20260503204350 | 14 | 202 | 14.5 | 16.1 | 0.00 | 0.00 | 0.00 | 37 | 1010.2 |
| 20260503203847 | 15 | 104 | 6.4 | 33.8 | 0.00 | 0.00 | 0.00 | 36 | 1010.0 |
| 20260503203344 | 15 | 274 | 9.7 | 20.9 | 0.00 | 0.00 | 0.00 | 34 | 1010.0 |
| 20260503202841 | 15 | 217 | 6.4 | 20.9 | 0.00 | 0.00 | 0.00 | 37 | 1010.2 |
| 20260503202339 | 15 | 274 | 17.7 | 29.0 | 0.00 | 0.00 | 0.00 | 36 | 1010.2 |
| 20260503201837 | 15 | 203 | 6.4 | 16.1 | 0.00 | 0.00 | 0.00 | 36 | 1010.2 |
| 20260503201334 | 15 | 148 | 8.0 | 27.4 | 0.00 | 0.00 | 0.00 | 37 | 1010.2 |
| 20260503200832 | 15 | 224 | 11.3 | 32.2 | 0.00 | 0.00 | 0.00 | 36 | 1010.4 |
| 20260503200327 | 15 | 253 | 20.9 | 22.5 | 0.00 | 0.00 | 0.00 | 37 | 1010.3 |
| 20260503195825 | 15 | 215 | 9.7 | 20.9 | 0.00 | 0.00 | 0.00 | 41 | 1010.3 |
| 20260503195321 | 15 | 231 | 20.9 | 22.5 | 0.00 | 0.00 | 0.00 | 37 | 1010.6 |
| 20260503194819 | 15 | 202 | 22.5 | 35.4 | 0.00 | 0.00 | 0.00 | 39 | 1010.6 |
| 20260503194314 | 15 | 297 | 11.3 | 24.1 | 0.00 | 0.00 | 0.00 | 39 | 1010.6 |
| 20260503193810 | 15 | 201 | 4.8 | 20.9 | 0.00 | 0.00 | 0.00 | 43 | 1011.0 |
| 20260503193307 | 15 | 234 | 3.2 | 12.9 | 0.00 | 0.00 | 0.00 | 41 | 1010.9 |
| 20260503192803 | 15 | 203 | 20.9 | 24.1 | 0.00 | 0.00 | 0.00 | 39 | 1011.2 |
| 20260503192258 | 15 | 349 | 4.8 | 14.5 | 0.00 | 0.00 | 0.00 | 42 | 1010.8 |
| 20260503191755 | 15 | 0 | 4.8 | 16.1 | 0.00 | 0.00 | 0.00 | 41 | 1011.1 |
| 20260503191252 | 15 | 195 | 11.3 | 20.9 | 0.00 | 0.00 | 0.00 | 40 | 1010.9 |
| 20260503190749 | 15 | 308 | 9.7 | 30.6 | 0.00 | 0.00 | 0.00 | 40 | 1011.2 |
| 20260503190245 | 14 | 184 | 3.2 | 30.6 | 0.00 | 0.00 | 0.00 | 42 | 1011.2 |
| 20260503185743 | 15 | 39 | 4.8 | 17.7 | 0.00 | 0.00 | 0.00 | 42 | 1011.2 |
| 20260503185238 | 15 | 301 | 8.0 | 9.7 | 0.00 | 0.00 | 0.00 | 40 | 1011.2 |
| 20260503184733 | 15 | 301 | 19.3 | 20.9 | 0.00 | 0.00 | 0.00 | 41 | 1011.4 |
| 20260503184230 | 15 | 273 | 4.8 | 20.9 | 0.00 | 0.00 | 0.00 | 43 | 1011.5 |
| 20260503183726 | 14 | 227 | 12.9 | 20.9 | 0.00 | 0.00 | 0.00 | 42 | 1011.5 |
| 20260503183223 | 14 | 253 | 8.0 | 27.4 | 0.00 | 0.00 | 0.00 | 41 | 1011.5 |
| 20260503182721 | 14 | 251 | 4.8 | 20.9 | 0.00 | 0.00 | 0.00 | 43 | 1011.5 |
| 20260503182220 | 15 | 267 | 6.4 | 14.5 | 0.00 | 0.00 | 0.00 | 43 | 1011.8 |
| 20260503181716 | 14 | 185 | 4.8 | 20.9 | 0.00 | 0.00 | 0.00 | 43 | 1011.6 |
| 20260503181213 | 15 | 230 | 16.1 | 32.2 | 0.00 | 0.00 | 0.00 | 38 | 1011.7 |
| 20260503180709 | 15 | 311 | 4.8 | 16.1 | 0.00 | 0.00 | 0.00 | 42 | 1011.5 |
| 20260503180208 | 15 | 231 | 20.9 | 30.6 | 0.00 | 0.00 | 0.00 | 40 | 1011.7 |
| 20260503175704 | 15 | 220 | 12.9 | 27.4 | 0.00 | 0.00 | 0.00 | 42 | 1011.7 |
| 20260503175202 | 15 | 278 | 4.8 | 12.9 | 0.00 | 0.00 | 0.00 | 46 | 1011.7 |
| 20260503174657 | 15 | 269 | 14.5 | 17.7 | 0.00 | 0.00 | 0.00 | 41 | 1011.9 |
| 20260503174155 | 15 | 157 | 4.8 | 8.0 | 0.00 | 0.00 | 0.00 | 46 | 1011.8 |
| 20260503173650 | 13 | 117 | 9.7 | 19.3 | 0.00 | 0.00 | 0.00 | 43 | 1012.0 |
| 20260503173147 | 13 | 129 | 3.2 | 12.9 | 0.00 | 0.00 | 0.00 | 45 | 1012.1 |
| 20260503172644 | 13 | 340 | 6.4 | 17.7 | 0.00 | 0.00 | 0.00 | 46 | 1011.9 |
| 20260503172141 | 13 | 282 | 6.4 | 19.3 | 0.00 | 0.00 | 0.00 | 42 | 1012.0 |
| 20260503171637 | 13 | 178 | 3.2 | 17.7 | 0.00 | 0.00 | 0.00 | 43 | 1012.1 |
| 20260503171135 | 13 | 276 | 14.5 | 14.5 | 0.00 | 0.00 | 0.00 | 40 | 1012.2 |
| 20260503170632 | 12 | 166 | 17.7 | 27.4 | 0.00 | 0.00 | 0.00 | 40 | 1012.2 |
| 20260503170129 | 14 | 181 | 4.8 | 14.5 | 0.00 | 0.00 | 0.00 | 40 | 1012.2 |
| 20260503150520 | 10 | 204 | 3.2 | 6.4 | 0.00 | 0.00 | 0.00 | 45 | 1013.4 |
| 20260503131413 | 8 | 226 | 0.0 | 14.5 | 0.00 | 0.00 | 0.00 | 67 | 1013.7 |
| 20260503130910 | 8 | 241 | 4.8 | 12.9 | 0.00 | 0.00 | 0.00 | 67 | 1013.7 |
| 20260503130408 | 8 | 238 | 11.3 | 17.7 | 0.00 | 0.00 | 0.00 | 66 | 1013.8 |
| 20260503110811 | 3 | 148 | 8.0 | 9.7 | 0.00 | 0.00 | 0.00 | 82 | 1013.6 |
| 20260503110308 | 3 | 142 | 12.9 | 16.1 | 0.00 | 0.00 | 0.00 | 82 | 1013.3 |
| 20260503100234 | 1 | 97 | 3.2 | 6.4 | 0.00 | 0.00 | 0.00 | 87 | 1013.2 |
| 20260503090154 | 0 | 132 | 4.8 | 6.4 | 0.00 | 0.00 | 0.00 | 89 | 1013.4 |
| 20260503081629 | 0 | 103 | 4.8 | 8.0 | 0.00 | 0.00 | 0.00 | 91 | 1013.4 |
| 20260503081126 | 0 | 124 | 4.8 | 8.0 | 0.00 | 0.00 | 0.00 | 92 | 1013.5 |
| 20260503080622 | 0 | 133 | 9.7 | 9.7 | 0.00 | 0.00 | 0.00 | 93 | 1013.2 |
| 20260503080119 | 0 | 121 | 6.4 | 6.4 | 0.00 | 0.00 | 0.00 | 93 | 1013.5 |
| 20260503072556 | 0 | 134 | 6.4 | 8.0 | 0.00 | 0.00 | 0.00 | 93 | 1013.6 |
| 20260503072053 | 0 | 125 | 4.8 | 8.0 | 0.00 | 0.00 | 0.00 | 93 | 1013.5 |
| 20260503071550 | 0 | 112 | 6.4 | 6.4 | 0.00 | 0.00 | 0.00 | 92 | 1013.5 |
| 20260503071047 | 0 | 127 | 4.8 | 6.4 | 0.00 | 0.00 | 0.00 | 92 | 1013.5 |
| 20260503070543 | 0 | 117 | 3.2 | 8.0 | 0.00 | 0.00 | 0.00 | 92 | 1013.5 |
| 20260503055003 | 0 | 113 | 4.8 | 6.4 | 0.00 | 0.00 | 0.00 | 92 | 1013.8 |
| 20260503054458 | 0 | 129 | 4.8 | 8.0 | 0.00 | 0.00 | 0.00 | 92 | 1014.0 |
| 20260503053956 | 0 | 125 | 6.4 | 8.0 | 0.00 | 0.00 | 0.00 | 92 | 1014.0 |
| 20260503053454 | 0 | 113 | 6.4 | 8.0 | 0.00 | 0.00 | 0.00 | 92 | 1014.4 |
| 20260503052950 | 0 | 112 | 3.2 | 6.4 | 0.00 | 0.00 | 0.00 | 92 | 1014.1 |
| 20260503052448 | 0 | 109 | 4.8 | 8.0 | 0.00 | 0.00 | 0.00 | 92 | 1014.1 |
| 20260503051944 | 0 | 150 | 4.8 | 6.4 | 0.00 | 0.00 | 0.00 | 91 | 1014.1 |
| 20260503051440 | 0 | 119 | 6.4 | 8.0 | 0.00 | 0.00 | 0.00 | 91 | 1014.1 |
| 20260503050937 | 0 | 120 | 6.4 | 6.4 | 0.00 | 0.00 | 0.00 | 91 | 1014.0 |
| 20260503050433 | 0 | 128 | 6.4 | 6.4 | 0.00 | 0.00 | 0.00 | 91 | 1014.1 |
| 20260503045931 | 0 | 111 | 4.8 | 6.4 | 0.00 | 0.00 | 0.00 | 91 | 1014.3 |
| 20260503045428 | 0 | 132 | 6.4 | 8.0 | 0.00 | 0.00 | 0.00 | 91 | 1014.4 |
| 20260503044925 | 0 | 120 | 6.4 | 8.0 | 0.00 | 0.00 | 0.00 | 90 | 1014.5 |
| 20260503044422 | 0 | 133 | 6.4 | 6.4 | 0.00 | 0.00 | 0.00 | 90 | 1014.6 |
| 20260503043920 | 1 | 112 | 4.8 | 6.4 | 0.00 | 0.00 | 0.00 | 90 | 1014.4 |
| 20260503043416 | 0 | 129 | 4.8 | 6.4 | 0.00 | 0.00 | 0.00 | 90 | 1014.4 |
| 20260503042912 | 1 | 129 | 4.8 | 6.4 | 0.00 | 0.00 | 0.00 | 90 | 1014.5 |
| 20260503042409 | 1 | 127 | 4.8 | 4.8 | 0.00 | 0.00 | 0.00 | 89 | 1014.5 |
| 20260503041905 | 1 | 117 | 4.8 | 6.4 | 0.00 | 0.00 | 0.00 | 89 | 1014.5 |
| 20260503041402 | 1 | 107 | 3.2 | 6.4 | 0.00 | 0.00 | 0.00 | 88 | 1014.5 |
| 20260503040900 | 1 | 113 | 3.2 | 6.4 | 0.00 | 0.00 | 0.00 | 89 | 1014.4 |
| 20260503040357 | 1 | 140 | 6.4 | 6.4 | 0.00 | 0.00 | 0.00 | 89 | 1014.5 |
| 20260503035854 | 1 | 110 | 3.2 | 6.4 | 0.00 | 0.00 | 0.00 | 88 | 1014.6 |
| 20260503035351 | 1 | 101 | 4.8 | 8.0 | 0.00 | 0.00 | 0.00 | 88 | 1014.5 |
| 20260503034848 | 1 | 110 | 3.2 | 6.4 | 0.00 | 0.00 | 0.00 | 88 | 1014.5 |
| 20260503034346 | 1 | 122 | 6.4 | 6.4 | 0.00 | 0.00 | 0.00 | 87 | 1014.6 |
| 20260503033843 | 1 | 145 | 3.2 | 4.8 | 0.00 | 0.00 | 0.00 | 86 | 1014.5 |
| 20260503033340 | 1 | 126 | 4.8 | 6.4 | 0.00 | 0.00 | 0.00 | 86 | 1014.5 |
| 20260503032838 | 1 | 134 | 3.2 | 4.8 | 0.00 | 0.00 | 0.00 | 85 | 1014.6 |
| 20260503032337 | 2 | 133 | 3.2 | 4.8 | 0.00 | 0.00 | 0.00 | 84 | 1014.4 |
| 20260503031834 | 2 | 136 | 3.2 | 4.8 | 0.00 | 0.00 | 0.00 | 84 | 1014.7 |
| 20260503031331 | 2 | 140 | 3.2 | 6.4 | 0.00 | 0.00 | 0.00 | 82 | 1014.6 |
| 20260503030827 | 2 | 125 | 4.8 | 4.8 | 0.00 | 0.00 | 0.00 | 81 | 1014.6 |
| 20260503030324 | 2 | 107 | 3.2 | 6.4 | 0.00 | 0.00 | 0.00 | 80 | 1014.8 |
| 20260503025821 | 2 | 121 | 3.2 | 4.8 | 0.00 | 0.00 | 0.00 | 80 | 1014.6 |
| 20260503025319 | 2 | 130 | 4.8 | 6.4 | 0.00 | 0.00 | 0.00 | 79 | 1014.8 |
| 20260503024815 | 2 | 136 | 4.8 | 4.8 | 0.00 | 0.00 | 0.00 | 79 | 1014.7 |
| 20260503024312 | 3 | 152 | 4.8 | 8.0 | 0.00 | 0.00 | 0.00 | 76 | 1014.9 |
| 20260503023809 | 3 | 133 | 3.2 | 4.8 | 0.00 | 0.00 | 0.00 | 76 | 1014.9 |
| 20260503023306 | 3 | 120 | 3.2 | 4.8 | 0.00 | 0.00 | 0.00 | 72 | 1014.9 |
| 20260503022803 | 3 | 104 | 3.2 | 8.0 | 0.00 | 0.00 | 0.00 | 72 | 1015.0 |
| 20260503022304 | 3 | 205 | 0.0 | 8.0 | 0.00 | 0.00 | 0.00 | 71 | 1015.1 |
| 20260503021759 | 4 | 177 | 0.0 | 3.2 | 0.00 | 0.00 | 0.00 | 70 | 1015.0 |
| 20260503021255 | 4 | 114 | 3.2 | 6.4 | 0.00 | 0.00 | 0.00 | 70 | 1014.9 |
| 20260503020753 | 4 | 80 | 4.8 | 4.8 | 0.00 | 0.00 | 0.00 | 72 | 1014.9 |
| 20260503020251 | 4 | 148 | 3.2 | 3.2 | 0.00 | 0.00 | 0.00 | 71 | 1015.1 |
| 20260503015747 | 4 | 43 | 0.0 | 3.2 | 0.00 | 0.00 | 0.00 | 70 | 1015.0 |
| 20260503015244 | 5 | 129 | 4.8 | 6.4 | 0.00 | 0.00 | 0.00 | 70 | 1014.8 |
| 20260503014739 | 5 | 116 | 3.2 | 12.9 | 0.00 | 0.00 | 0.00 | 68 | 1014.7 |
| 20260503014238 | 5 | 24 | 3.2 | 6.4 | 0.00 | 0.00 | 0.00 | 70 | 1014.8 |
| 20260503013734 | 5 | 359 | 0.0 | 8.0 | 0.00 | 0.00 | 0.00 | 69 | 1014.8 |
| 20260503013232 | 5 | 219 | 4.8 | 8.0 | 0.00 | 0.00 | 0.00 | 68 | 1014.8 |
| 20260503012729 | 5 | 260 | 3.2 | 8.0 | 0.00 | 0.00 | 0.00 | 68 | 1014.8 |
| 20260503012226 | 5 | 242 | 0.0 | 9.7 | 0.00 | 0.00 | 0.00 | 68 | 1014.9 |
| 20260503011723 | 5 | 114 | 3.2 | 8.0 | 0.00 | 0.00 | 0.00 | 69 | 1014.8 |
| 20260503011220 | 5 | 253 | 1.6 | 9.7 | 0.00 | 0.00 | 0.00 | 71 | 1014.9 |
| 20260503010716 | 5 | 241 | 1.6 | 8.0 | 0.00 | 0.00 | 0.00 | 72 | 1014.8 |
| 20260503010213 | 5 | 140 | 4.8 | 4.8 | 0.00 | 0.00 | 0.00 | 69 | 1014.9 |
| 20260503005711 | 5 | 105 | 3.2 | 6.4 | 0.00 | 0.00 | 0.00 | 70 | 1014.8 |
| 20260503005208 | 5 | 160 | 6.4 | 6.4 | 0.00 | 0.00 | 0.00 | 69 | 1014.9 |
| 20260503004704 | 5 | 198 | 4.8 | 14.5 | 0.00 | 0.00 | 0.00 | 67 | 1014.8 |
| 20260503004203 | 5 | 271 | 4.8 | 8.0 | 0.00 | 0.00 | 0.00 | 68 | 1014.6 |
| 20260503003659 | 5 | 273 | 6.4 | 6.4 | 0.00 | 0.00 | 0.00 | 68 | 1014.8 |
| 20260503003156 | 5 | 97 | 3.2 | 4.8 | 0.00 | 0.00 | 0.00 | 69 | 1014.7 |
| 20260503002653 | 5 | 194 | 3.2 | 8.0 | 0.00 | 0.00 | 0.00 | 67 | 1014.6 |
| 20260503002149 | 5 | 42 | 1.6 | 1.6 | 0.00 | 0.00 | 0.00 | 68 | 1014.7 |
| 20260503001645 | 5 | 127 | 3.2 | 4.8 | 0.00 | 0.00 | 0.00 | 68 | 1014.7 |
| 20260503001143 | 5 | 8 | 3.2 | 8.0 | 0.00 | 0.00 | 0.00 | 68 | 1014.7 |
| 20260503000640 | 5 | 283 | 3.2 | 4.8 | 0.00 | 0.00 | 0.00 | 67 | 1014.8 |
| 20260503000137 | 5 | 66 | 6.4 | 8.0 | 0.00 | 0.00 | 0.00 | 66 | 1014.7 |
| 20260502235634 | 5 | 330 | 1.6 | 4.8 | 0.00 | 0.00 | 0.00 | 68 | 1014.7 |
| 20260502235132 | 5 | 280 | 3.2 | 4.8 | 0.00 | 0.00 | 0.00 | 67 | 1014.8 |
| 20260502234627 | 5 | 7 | 3.2 | 4.8 | 0.00 | 0.00 | 0.00 | 65 | 1014.8 |
| 20260502234125 | 5 | 179 | 3.2 | 8.0 | 0.00 | 0.00 | 0.00 | 64 | 1014.7 |
| 20260502233621 | 5 | 182 | 4.8 | 4.8 | 0.00 | 0.00 | 0.00 | 66 | 1014.6 |
| 20260502233118 | 5 | 145 | 4.8 | 4.8 | 0.00 | 0.00 | 0.00 | 65 | 1014.7 |
| 20260502232614 | 5 | 313 | 6.4 | 6.4 | 0.00 | 0.00 | 0.00 | 67 | 1014.8 |
| 20260502232112 | 5 | 337 | 0.0 | 4.8 | 0.00 | 0.00 | 0.00 | 67 | 1015.0 |
| 20260502231608 | 5 | 341 | 6.4 | 8.0 | 0.00 | 0.00 | 0.00 | 66 | 1014.7 |
| 20260502231106 | 5 | 195 | 6.4 | 6.4 | 0.00 | 0.00 | 0.00 | 66 | 1014.7 |
| 20260502230604 | 5 | 96 | 3.2 | 4.8 | 0.00 | 0.00 | 0.00 | 63 | 1014.8 |
| 20260502225557 | 5 | 244 | 6.4 | 14.5 | 0.00 | 0.00 | 0.00 | 61 | 1014.6 |
| 20260502225055 | 6 | 194 | 4.8 | 9.7 | 0.00 | 0.00 | 0.00 | 62 | 1014.7 |